Weather reports worldwide

Advertisment
Barcelona/Aeropuerto, Spain (8181): temperature & dewpoint: 18.08.2019 07:00:00 - 24.08.2019 07:00:00 (CEST)Barcelona/Aeropuerto, Spain (8181): wind speed: 18.08.2019 07:00:00 - 24.08.2019 07:00:00 (CEST)Barcelona/Aeropuerto, Spain (8181): wind direction: 18.08.2019 07:00:00 - 24.08.2019 07:00:00 (CEST)Barcelona/Aeropuerto, Spain (8181): reduced air pressure: 18.08.2019 07:00:00 - 24.08.2019 07:00:00 (CEST)Barcelona/Aeropuerto, Spain (8181): visibility: 18.08.2019 07:00:00 - 24.08.2019 07:00:00 (CEST)
Date & Time tt [°C] td [°C] ff [km/h] ff [kn] dd ppp [hPa] vv [km]
24.08.2019 07:00:00 21,7 16,4 15 8 N 1018,8 21
24.08.2019 06:00:00 22,0 16,3 13 7 N 1018,7 24
24.08.2019 05:00:00 22,0 16,3 8 4 N 1018,8 2,8
24.08.2019 04:00:00 22,2 16,0 8 4 NNW 1018,9 30
24.08.2019 03:00:00 22,6 17,1 5 3 NNW 1018,9 26
24.08.2019 02:00:00 23,1 18,2 4 2 NNW 1019,0 30
24.08.2019 01:00:00 23,7 17,9 4 2 N 1019,0 30
24.08.2019 00:00:00 23,9 18,5 8 4 N 1019,0 30
23.08.2019 23:00:00 24,1 19,6 8 4 WNW 1019,1 30
23.08.2019 22:00:00 25,8 19,0 5 3 SSE 1019,1 30
23.08.2019 21:00:00 25,3 19,4 2 1 NW 1018,6 30
23.08.2019 20:00:00 26,4 20,0 5 3 SSE 1018,8 28
23.08.2019 19:00:00 27,0 19,6 9 5 SSE 1018,8 30
23.08.2019 18:00:00 27,3 19,8 11 6 SSE 1019,2 30
23.08.2019 17:00:00 27,8 19,8 13 7 SSE 1019,3 30
23.08.2019 16:00:00 27,9 19,0 11 6 S 1019,5 30
23.08.2019 15:00:00 27,9 19,6 15 8 SE 1020,0 30
23.08.2019 14:00:00 28,0 18,8 15 8 SE 1020,3 30
23.08.2019 13:00:00 28,8 16,8 11 6 SE 1020,5 30
23.08.2019 12:00:00 28,8 15,7 15 8 ESE 1020,5 30
23.08.2019 11:00:00 28,6 12,8 13 7 E 1020,7 29
23.08.2019 10:00:00 26,1 17,5 11 6 N 1020,4 26
23.08.2019 09:00:00 23,5 17,5 16 9 N 1020,2 25
23.08.2019 08:00:00 21,9 17,4 18 10 N 1020,1 30
23.08.2019 07:00:00 21,6 17,8 13 7 N 1019,9 26
23.08.2019 06:00:00 22,3 18,3 16 9 N 1019,8 26
23.08.2019 05:00:00 22,4 18,8 16 9 NNE 1019,9 29
23.08.2019 04:00:00 22,9 19,1 13 7 N 1019,9 26
23.08.2019 03:00:00 23,6 19,1 11 6 N 1020,0 26
23.08.2019 02:00:00 23,8 19,7 5 3 N 1020,1 30
23.08.2019 01:00:00 24,5 19,6 9 5 N 1020,3 30
23.08.2019 00:00:00 24,8 20,1 4 2 NNW 1020,2 30
22.08.2019 23:00:00 25,3 20,1 9 5 NW 1020,5 30
22.08.2019 22:00:00 25,8 19,7 8 4 W 1020,6 30
22.08.2019 21:00:00 26,5 19,6 9 5 SW 1020,1 30
22.08.2019 20:00:00 27,4 19,7 13 7 SW 1019,6 30
22.08.2019 19:00:00 27,9 19,7 16 9 SW 1019,4 26
22.08.2019 18:00:00 28,6 19,2 15 8 SSW 1019,5 30
22.08.2019 17:00:00 28,8 19,1 15 8 SSW 1019,6 30
22.08.2019 16:00:00 28,8 19,1 21 11 SW 1019,7 30
22.08.2019 15:00:00 29,2 19,8 22 12 SW 1019,6 30
22.08.2019 14:00:00 28,8 19,9 22 12 SW 1019,6 35
22.08.2019 13:00:00 28,3 19,8 24 13 SW 1020,0 26
22.08.2019 12:00:00 28,5 19,1 22 12 SW 1020,1 27
22.08.2019 11:00:00 28,2 19,1 21 11 SW 1020,0 30
22.08.2019 10:00:00 27,2 19,2 4 2 W 1020,0 30
22.08.2019 09:00:00 24,8 20,6 11 6 N 1019,9 22
22.08.2019 08:00:00 23,7 20,2 11 6 N 1019,5 22
22.08.2019 07:00:00 23,5 20,2 9 5 NNW 1019,2 20
22.08.2019 06:00:00 24,2 20,5 9 5 N 1019,0 24
22.08.2019 05:00:00 24,5 20,5 4 2 NE 1018,8 19
22.08.2019 04:00:00 24,9 20,4 5 3 NNW 1019,0 28
22.08.2019 03:00:00 25,0 20,5 8 4 NNE 1018,4 22
22.08.2019 02:00:00 25,2 20,5 11 6 NW 1018,9 30
22.08.2019 01:00:00 25,6 20,4 8 4 N 1019,3 30
22.08.2019 00:00:00 25,6 20,6 9 5 WNW 1019,5 30
21.08.2019 23:00:00 25,6 20,8 8 4 W 1019,7 30
21.08.2019 22:00:00 25,8 21,0 8 4 WSW 1019,4 30
21.08.2019 21:00:00 25,8 20,9 8 4 WSW 1018,9 30
21.08.2019 20:00:00 26,1 20,7 13 7 SW 1018,6 30
21.08.2019 19:00:00 26,9 20,5 15 8 SW 1018,5 30
21.08.2019 18:00:00 27,3 20,1 18 10 SW 1018,8 30
21.08.2019 17:00:00 28,0 20,0 16 9 SW 1018,3 25
21.08.2019 16:00:00 28,2 19,9 21 11 SW 1018,5 30
21.08.2019 15:00:00 27,8 18,6 18 10 SW 1018,8 30
21.08.2019 14:00:00 27,5 18,7 22 12 SW 1019,1 30
21.08.2019 13:00:00 27,3 19,3 16 9 SSW 1019,6 30
21.08.2019 12:00:00 27,2 18,3 16 9 SW 1020,1 30
21.08.2019 11:00:00 26,4 17,2 9 5 N 1020,2 30
21.08.2019 10:00:00 24,9 17,0 18 10 NNE 1020,4 30
21.08.2019 09:00:00 22,9 17,1 13 7 N 1020,7 30
21.08.2019 08:00:00 21,3 17,1 15 8 N 1020,7 28
21.08.2019 07:00:00 20,7 16,9 13 7 N 1020,5 30
21.08.2019 06:00:00 21,2 17,0 13 7 N 1020,2 29
21.08.2019 05:00:00 21,9 17,3 15 8 N 1020,6 25
21.08.2019 04:00:00 22,1 17,2 11 6 N 1020,6 30
21.08.2019 03:00:00 22,6 17,1 21 11 N 1020,6 30
21.08.2019 02:00:00 23,7 17,1 16 9 N 1021,1 25
21.08.2019 01:00:00 24,3 17,5 9 5 N 1021,2 30
21.08.2019 00:00:00 24,2 18,4 9 5 N 1021,1 23
20.08.2019 23:00:00 25,3 17,9 5 3 NNW 1021,1 25
20.08.2019 22:00:00 25,3 17,7 9 5 NE 1020,8 30
20.08.2019 21:00:00 25,7 18,1 9 5 E 1020,4 30
20.08.2019 20:00:00 25,6 18,4 22 12 ESE 1019,8 24
20.08.2019 19:00:00 27,0 19,2 18 10 SE 1019,5 29
20.08.2019 18:00:00 27,9 18,9 15 8 ESE 1019,0 30
20.08.2019 17:00:00 27,3 19,9 22 12 SE 1019,0 23
20.08.2019 16:00:00 27,4 19,4 21 11 ESE 1019,2 30
20.08.2019 15:00:00 28,1 16,5 8 4 NNE 1019,8 30
20.08.2019 14:00:00 27,4 17,1 13 7 NNW 1019,5 30
20.08.2019 13:00:00 27,0 17,8 16 9 E 1019,8 30
20.08.2019 12:00:00 26,6 18,0 31 17 E 1018,9 30
20.08.2019 11:00:00 27,1 16,5 29 16 E 1018,4 30
20.08.2019 10:00:00 26,9 16,9 34 18 E 1017,5 30
20.08.2019 09:00:00 26,0 17,6 24 13 E 1017,3 30
20.08.2019 08:00:00 25,3 17,9 16 9 ENE 1017,2 30
20.08.2019 07:00:00 25,3 17,5 18 10 E 1017,3 30
20.08.2019 06:00:00 25,4 17,4 22 12 E 1016,7 30
20.08.2019 05:00:00 25,7 17,8 24 13 E 1016,8 30
20.08.2019 04:00:00 25,6 17,8 21 11 E 1017,1 30
20.08.2019 03:00:00 25,6 17,5 24 13 E 1017,3 30
20.08.2019 02:00:00 25,8 18,2 29 16 E 1017,1 25
20.08.2019 01:00:00 25,7 19,1 29 16 E 1017,2 30
20.08.2019 00:00:00 25,6 19,7 29 16 E 1017,2 30
19.08.2019 23:00:00 25,6 19,8 29 16 E 1017,5 30
19.08.2019 22:00:00 25,5 20,3 29 16 E 1017,3 30
19.08.2019 21:00:00 25,6 20,8 26 14 E 1016,8 30
19.08.2019 20:00:00 26,0 20,8 28 15 E 1016,5 25
19.08.2019 19:00:00 26,9 20,7 29 16 E 1016,3 30
19.08.2019 18:00:00 27,7 20,1 29 16 E 1016,4 30
19.08.2019 17:00:00 28,5 19,4 31 17 E 1016,6 25
19.08.2019 16:00:00 28,0 19,6 34 18 ESE 1016,7 30
19.08.2019 15:00:00 28,5 20,3 31 17 ESE 1017,0 30
19.08.2019 14:00:00 28,7 20,2 29 16 ESE 1017,0 25
19.08.2019 13:00:00 28,5 20,2 29 16 E 1016,9 30
19.08.2019 12:00:00 28,0 20,3 26 14 E 1017,0 30
19.08.2019 11:00:00 27,2 21,3 29 16 E 1016,5 20
19.08.2019 10:00:00 26,6 22,7 34 18 E 1015,8 16
19.08.2019 09:00:00 26,4 22,3 29 16 E 1015,3 24
19.08.2019 08:00:00 26,0 23,1 22 12 E 1014,7 19
19.08.2019 07:00:00 25,5 23,4 22 12 E 1014,3 14
19.08.2019 06:00:00 25,6 23,6 22 12 E 1014,1 14
19.08.2019 05:00:00 25,8 23,7 16 9 E 1014,1 14
19.08.2019 04:00:00 25,1 22,6 11 6 N 1014,3 17
19.08.2019 03:00:00 25,4 22,9 9 5 N 1014,3 18
19.08.2019 02:00:00 26,1 23,6 13 7 E 1014,1 22
19.08.2019 01:00:00 26,6 24,1 13 7 E 1014,1 22
19.08.2019 00:00:00 26,7 24,3 9 5 E 1013,9 21
18.08.2019 23:00:00 26,8 24,1 11 6 E 1013,4 20
18.08.2019 22:00:00 27,0 22,8 4 2 SSE 1012,5 30
18.08.2019 21:00:00 27,2 23,9 5 3 S 1011,7 24
18.08.2019 20:00:00 27,7 23,8 11 6 SSW 1011,6 22
18.08.2019 19:00:00 28,9 23,4 15 8 SW 1011,5 30
18.08.2019 18:00:00 29,3 23,7 18 10 SW 1011,8 30
18.08.2019 17:00:00 29,8 23,2 24 13 SW 1012,0 30
18.08.2019 16:00:00 29,7 24,0 26 14 SW 1012,2 21
18.08.2019 15:00:00 29,7 23,6 26 14 SW 1012,7 20
18.08.2019 14:00:00 29,4 23,9 22 12 SW 1012,9 22
18.08.2019 13:00:00 29,1 24,2 18 10 SSW 1013,2 29
18.08.2019 12:00:00 28,8 23,9 13 7 SSW 1013,3 28
18.08.2019 11:00:00 28,5 23,5 13 7 SW 1013,2 18
18.08.2019 10:00:00 27,7 23,0 4 2 NW 1013,0 30
18.08.2019 09:00:00 25,3 21,4 9 5 N 1013,0 23
18.08.2019 08:00:00 23,5 20,6 13 7 N 1013,1 2,7
18.08.2019 07:00:00 23,1 20,4 13 7 N 1013,1 19

tt = temperature
td = dewpoint
ff = wind speed
dd = wind direction
ppp = reduced air pressure
vv = visibility

Next stations